Retour au catalogue

STARLINK-37667

ActifCommunicationsSSO
NORAD 69045·PAYLOAD·🇺🇸 United States

Lancé May 6, 2026 depuis Vandenberg Space Force Base

Loading…

Prochains Passages (prochaines 24 heures)

TLE

FraisSource: CelesTrak SupGP

Époque: Sep 15, 2026, 03:40 UTC

1 69045C 26101W   26258.15326389 -.00025817  00000+0 -80131-3 0  2582
2 69045  97.2844 111.7465 0001936  93.1405 190.2666 15.33456099    12

Suivez STARLINK-37667 en temps réel avec AllMySat

Download on the App Store